Regional Weather Roundup
Issued by NWS

Home | Current Version | Previous Version | Graphics & Text | Print | Product List | Glossary On
Versions: 1 2 3 4 5 6 7 8 9 10 11 12 13 14 15 16 17 18 19 20 21 22 23 24 25 26 27 28 29 30 31 32 33 34 35 36 37 38 39 40 41 42 43 44 45 46 47 48 49 50
000
ASUS43 KLOT 200508
RWRIL

ILLINOIS REGIONAL WEATHER ROUNDUP
NATIONAL WEATHER SERVICE CHICAGO/ROMEOVILLE IL
1100 PM CST THU JAN 19 2017

NOTE: "FAIR" INDICATES FEW OR NO CLOUDS BELOW 12,000 FEET WITH NO
SIGNIFICANT WEATHER AND/OR OBSTRUCTIONS TO VISIBILITY.

* THESE STATIONS ARE NOT UNDER NWS QUALITY CONTROL. THEY ALSO MAY NOT
  REPORT WEATHER SUCH AS PRECIPITATION OR FOG.

ILZ001-002-007-009-015-016-024-200600-
NORTHWEST ILLINOIS

CITY           SKY/WX    TMP DP  RH WIND       PRES   REMARKS
MOLINE         CLOUDY    38  36  92 E9        29.66F FOG     WCI  31
STERLING*      MIX PCPN  36  36 100 E8        29.70F FOG     WCI  30
SAVANNA*       CLOUDY    37  37  99 E10       29.70F FOG     WCI  30
$$

ILZ003-004-008-010-011-017-018-200600-
NORTH CENTRAL ILLINOIS

CITY           SKY/WX    TMP DP  RH WIND       PRES   REMARKS
ROCKFORD       CLOUDY    38  36  92 NE8       29.74F FOG     WCI  32
FREEPORT*      CLOUDY    35  35  99 E10       29.73F FOG     WCI  28
ROCHELLE*      CLOUDY    36  36  99 NE9       29.70F FOG     WCI  29
DE KALB*       CLOUDY    37  37  98 NE7       29.71F FOG     WCI  32
$$

ILZ005-006-012>014-019>023-200600-
NORTHEAST ILLINOIS

CITY           SKY/WX    TMP DP  RH WIND       PRES   REMARKS
CHICAGO-OHARE  LGT RAIN  38  37  97 NE8       29.72F FOG     WCI  32
CHICAGO-MIDWAY LGT RAIN  38  36  92 E8        29.72F FOG     WCI  32
AURORA         CLOUDY    39  37  92 NE10      29.70F FOG     WCI  32
LANSING*       RAIN      38  38 100 NE7       29.73F WCI  32
JOLIET*        RAIN      40  40  98 NE6       29.70F
WAUKEGAN       LGT RAIN  37  36  96 E7        29.76F FOG     WCI  32
DUPAGE AIRPORT LGT RAIN  39  36  89 NE7       29.71F FOG     WCI  34
KANKAKEE*      LGT RAIN  39  39  98 E9        29.70F WCI  33
WHEELING       LGT RAIN  37  36  96 NE6       29.75F FOG     WCI  32
MORRIS*        CLOUDY    38  37  97 NE3       29.69F FOG
ROMEOVILLE*    LGT RAIN  38  38 100 E10       29.70F WCI  31
NORTHERLY ISL    N/A     35  33  92 NE6         N/A  WCI  30
$$

LMZ740>746-200600-
SOUTHERN LAKE MICHIGAN

STATION/POSITION SKY/WX   TEMP    WIND        PRES    VSBY  WAVE
                          AIR SEA DIR/SP/G                  HT/PER
                          (F)     (DEG/KT/KT) (MB)    (MI)  (FT/S)
HARRISON CRIB              38      90/ 10/ 10   N/A
BURNHAM HARBOR             35      60/  7       N/A
CALUMET HARBOR             35      40/  7/  9 1006.8F
BURNS HARBOR               35      70/  5/  7 1008.5F
MICHIGAN CITY              36      40/  8/ 10   N/A
$$

ILZ025>027-034>036-040-047-049-050-058-095>099-200600-
WEST-CENTRAL ILLINOIS

CITY           SKY/WX    TMP DP  RH WIND       PRES   REMARKS
QUINCY         FOG       42  42 100 SE7       29.64S VSB 1/4
GALESBURG*     CLOUDY    38  38 100 E8        29.66F FOG     WCI  32
MACOMB*        FOG       39  39 100 E7        29.68S VSB 1/2 WCI  34
JACKSONVILLE*  FOG       42  42  99 SE5       29.65F VSB 1/2
PITTSFIELD*    FOG       43  43 100 CALM      29.66F VSB 1/4
$$

ILZ028>032-037-038-041>044-048-051>054-059>061-200600-
CENTRAL ILLINOIS

CITY           SKY/WX    TMP DP  RH WIND       PRES   REMARKS
PONTIAC        CLOUDY    39  39 100 E9        29.68F FOG     WCI  33
BLOOMINGTON    FOG       39  39 100 E7        29.65F VSB 1/2 WCI  34
DECATUR        CLOUDY    43  33  68 E6        29.64F HAZE
PEORIA         CLOUDY    41  40  96 NE7       29.66F FOG
LACON*         CLOUDY    38  38 100 E5        29.67F FOG     WCI  34
LINCOLN*       CLOUDY    43  43 100 E3        29.64F FOG
SPRINGFIELD    CLOUDY    44  42  93 CALM      29.65F FOG
TAYLORVILLE    DRIZZLE   43  42  99 CALM      29.65S
$$

ILZ033-039-045-046-055>057-062-063-200600-
EAST-CENTRAL ILLINOIS

CITY           SKY/WX    TMP DP  RH WIND       PRES   REMARKS
CHAMPAIGN      LGT RAIN  44  42  93 E12       29.64F FOG
RANTOUL*       DRIZZLE   44  43  99 NE8       29.66F
MATTOON        RAIN      45  44  97 CALM      29.62F FOG
PARIS*         LGT RAIN  45  45 100 E7        29.65F
$$

ILZ079-100>102-200600-
SOUTHWEST ILLINOIS

CITY           SKY/WX    TMP DP  RH WIND       PRES   REMARKS
ALTON          LGT RAIN  44  44 100 SE9       29.65S
BELLEVILLE     LGT RAIN  46  46 100 NW3       29.62F FOG
CAHOKIA*       RAIN      47  45  93 E8        29.62F
SPARTA*        DRIZZLE   46  46  99 CALM      29.64F
$$

ILZ064>066-069>071-074>076-080>082-084>086-088>090-092>094-200600-
SOUTH-CENTRAL ILLINOIS

CITY           SKY/WX    TMP DP  RH WIND       PRES   REMARKS
CARBONDALE     LGT RAIN  50  50 100 CALM      29.65S FOG
CAIRO*         CLOUDY    56  55  97 SW7       29.66F
EFFINGHAM*     HVY RAIN  48  48 100 CALM      29.65S
MARION         DRIZZLE   59  57  94 SW6       29.65F
MT. VERNON     LGT RAIN  50  49  96 VRB5      29.65R
CENTRALIA*     RAIN      48  48 100 CALM      29.65R
SALEM*         RAIN      48  47  95 CALM      29.64F
METROPOLIS*    DRIZZLE   57  57  98 CALM      29.67F
$$

ILZ067-068-072-073-078-083-087-091-200600-
SOUTHEAST ILLINOIS

CITY           SKY/WX    TMP DP  RH WIND       PRES   REMARKS
LAWRENCEVILLE  LGT RAIN  50  50 100 SE5       29.65F FOG
FLORA*         RAIN      51  50  98 SE6       29.62F
FAIRFIELD*     LGT RAIN  54  54 100 S8        29.62F
HARRISBURG*    DRIZZLE   57  57  98 S8        29.65F
ROBINSON*      LGT RAIN  48  48 100 SE5       29.66F
CARMI*         DRIZZLE   54  54 100 S8        29.64F
$$

ABBREVIATIONS USED IN REMARKS
   TC - TEMPERATURE IN CELSIUS
  WCI - WIND CHILL INDEX
   HX - HEAT INDEX
  VSB - VISIBILITY
$$




USA.gov is the U.S. government's official web portal to all federal, state and local government web resources and services.